Regional Weather Roundup
Issued by NWS

Home | Current Version | Previous Version | Text Only | Print | Product List | Glossary On
Versions: 1 2 3 4 5 6 7 8 9 10 11 12 13 14 15 16 17 18 19 20 21 22 23 24 25 26 27 28 29 30 31 32 33 34 35 36 37 38 39 40 41 42 43 44 45 46 47 48 49 50
000
ASUS43 KFSD 231102
RWRSD

WEATHER ROUNDUP FOR SOUTH DAKOTA
NATIONAL WEATHER SERVICE SIOUX FALLS SD
600 AM CDT SUN APR 23 2017

NOTE: "FAIR" INDICATES FEW OR NO CLOUDS BELOW 12,000 FEET WITH NO
SIGNIFICANT WEATHER AND/OR OBSTRUCTIONS TO VISIBILITY.


SDZ001>005-009-010-012>017-231200-
NORTHWEST AND NORTH CENTRAL SOUTH DAKOTA

CITY           SKY/WX    TMP DP  RH WIND       PRES   REMARKS
BUFFALO          N/A     41  40  96 E21       29.82F
FAITH            N/A     42  36  79 VRB5      29.89F
MOBRIDGE       CLOUDY    35  28  75 E24G33    29.96F WCI  23
$$

SDZ012>016-024>037-041>051-057-063-072>074-231200-
SOUTHWEST AND SOUTH CENTRAL SOUTH DAKOTA

CITY           SKY/WX    TMP DP  RH WIND       PRES   REMARKS
RAPID CTY ARPT PTCLDY    45  33  63 S14       29.89F
PIERRE         CLOUDY    47  31  53 SW9       29.96F
CUSTER         CLOUDY    38  28  67 CALM      29.94F
ELLSWORTH AFB  PTCLDY    46  33  61 S12       29.87F HAZE
PHILIP         PTCLDY    46  34  62 S9        29.93F
PINE RIDGE     PTCLDY    45  32  60 S16G25    29.96F
SPEARFISH      FAIR      55  28  35 S22G29    29.85F
WINNER         FAIR      46  31  55 S14       30.03F
$$

SDZ004>011-016>023-039-040-231200-
NORTHEAST SOUTH DAKOTA

CITY           SKY/WX    TMP DP  RH WIND       PRES   REMARKS
ABERDEEN       CLOUDY    36  31  82 NE21G26   30.07F
WATERTOWN      CLEAR     36  33  89 VRB3      30.05F
BROOKINGS      CLEAR     45  33  63 SW7       30.07S
SISSETON         N/A     39  37  92 N10       30.10F
$$

SDZ017-020-022-023-036>040-048>070-231200-
SOUTHEAST SOUTH DAKOTA

CITY           SKY/WX    TMP DP  RH WIND       PRES   REMARKS
SIOUX FALLS    CLEAR     49  34  56 SW8       30.08F
HURON          CLEAR     40  36  86 CALM      30.02F
MITCHELL       CLEAR     49  35  58 SW10      30.05F
YANKTON        CLEAR     46  30  53 S9        30.09F
$$

ABBREVIATIONS USED IN REMARKS
   TC - TEMPERATURE IN CELSIUS
  WCI - WIND CHILL INDEX
   HX - HEAT INDEX
  VSB - VISIBILITY




USA.gov is the U.S. government's official web portal to all federal, state and local government web resources and services.